TimeCST,TemperatureF,Dew PointF,Humidity,Sea Level PressureIn,VisibilityMPH,Wind Direction,Wind SpeedMPH,Gust SpeedMPH,PrecipitationIn,Events,Conditions,WindDirDegrees,DateUTC
12:54 AM,28.0,21.9,78,30.24,9.0,NNW,9.2,-,N/A,,Overcast,330,2013-03-02 06:54:00
1:54 AM,28.0,21.9,78,30.24,9.0,NNW,10.4,-,0.00,Snow,Light Snow,330,2013-03-02 07:54:00
2:54 AM,27.0,21.0,78,30.23,7.0,NNW,9.2,-,0.00,,Overcast,340,2013-03-02 08:54:00
3:54 AM,27.0,21.0,78,30.23,10.0,NNW,11.5,-,0.00,,Overcast,340,2013-03-02 09:54:00
4:21 AM,26.6,21.2,80,30.20,10.0,NNW,9.2,-,N/A,,Overcast,330,2013-03-02 10:21:00
4:54 AM,26.6,19.4,74,30.21,10.0,NNW,9.2,-,N/A,,Overcast,340,2013-03-02 10:54:00
5:54 AM,27.0,19.0,72,30.25,10.0,NNW,11.5,-,N/A,,Overcast,330,2013-03-02 11:54:00
6:54 AM,27.0,18.0,69,30.27,10.0,NNW,11.5,-,N/A,,Overcast,330,2013-03-02 12:54:00
7:54 AM,27.0,19.0,72,30.29,8.0,NNW,11.5,-,N/A,,Overcast,340,2013-03-02 13:54:00
8:54 AM,28.9,21.0,72,30.29,6.0,NW,9.2,-,0.00,Snow,Light Snow,320,2013-03-02 14:54:00
9:08 AM,28.4,21.2,74,30.26,8.0,NW,10.4,-,0.00,Snow,Light Snow,320,2013-03-02 15:08:00
9:54 AM,28.9,19.0,67,30.30,10.0,NNW,12.7,-,0.00,,Mostly Cloudy,340,2013-03-02 15:54:00
10:54 AM,30.0,18.0,61,30.30,10.0,NNW,11.5,-,N/A,,Overcast,340,2013-03-02 16:54:00
11:54 AM,32.0,18.0,56,30.29,10.0,NW,10.4,-,N/A,,Mostly Cloudy,320,2013-03-02 17:54:00
12:54 PM,32.0,18.0,56,30.27,10.0,NNW,12.7,-,N/A,,Mostly Cloudy,330,2013-03-02 18:54:00
1:54 PM,33.1,18.0,54,30.26,10.0,NNW,13.8,19.6,N/A,,Mostly Cloudy,330,2013-03-02 19:54:00
2:54 PM,33.1,18.0,54,30.25,10.0,NNW,10.4,-,N/A,,Overcast,330,2013-03-02 20:54:00
3:54 PM,33.1,17.1,52,30.25,10.0,NNW,9.2,-,N/A,,Overcast,330,2013-03-02 21:54:00
4:54 PM,32.0,16.0,52,30.26,10.0,WNW,10.4,-,N/A,,Mostly Cloudy,290,2013-03-02 22:54:00
5:54 PM,30.0,16.0,56,30.27,10.0,WNW,8.1,-,N/A,,Scattered Clouds,290,2013-03-02 23:54:00
6:54 PM,28.0,16.0,61,30.27,10.0,West,8.1,-,N/A,,Partly Cloudy,280,2013-03-03 00:54:00
7:54 PM,27.0,17.1,66,30.28,10.0,West,6.9,-,N/A,,Clear,280,2013-03-03 01:54:00
8:54 PM,27.0,16.0,63,30.27,10.0,WNW,8.1,-,N/A,,Clear,290,2013-03-03 02:54:00
9:54 PM,25.0,16.0,69,30.27,10.0,WNW,5.8,-,N/A,,Clear,300,2013-03-03 03:54:00
10:54 PM,21.9,16.0,78,30.26,10.0,Calm,Calm,-,N/A,,Clear,0,2013-03-03 04:54:00
11:54 PM,21.0,16.0,81,30.26,10.0,Calm,Calm,-,N/A,,Clear,0,2013-03-03 05:54:00